Regional Weather Roundup
Issued by NWS Kansas City/Pleasant Hill, MO

Home | Current Version | Previous Version | Text Only | Print | Product List | Glossary On
Versions: 1 2 3 4 5 6 7 8 9 10 11 12 13 14 15 16 17 18 19 20 21 22 23 24 25 26 27 28 29 30 31 32 33 34 35 36 37 38 39 40 41 42 43 44 45 46 47 48 49 50
000
ASUS43 KEAX 281510
RWREAX

WEATHER ROUNDUP FOR EASTERN KANSAS AND NORTHWEST MISSOURI
NATIONAL WEATHER SERVICE KANSAS CITY/PLEASANT HILL MO
1000 AM CDT WED JUN 28 2017

KSZ040-057-103>105-MOZ028-029-037-043-281600-
...KANSAS CITY METROPOLITAN AREA...

CITY           SKY/WX    TMP DP  RH WIND       PRES   REMARKS
K.C. INTL      CLOUDY    75  68  78 S17G28    29.83F
K.C. DOWNTOWN  MOSUNNY   78  68  71 S20G29    29.82F
LEES SUMMIT    CLOUDY    77  67  71 S23G31    29.86F
OLATHE - IXD   CLOUDY    78  67  68 S21G31    29.86F
OLATHE - OJC   CLOUDY    76  68  76 S20G29    29.86F
LAWRENCE       CLOUDY    78  69  73 S22G33    29.81F

$$

MOZ001>008-011>017-020>025-030>033-038>040-044>046-053-054-281600-
...NORTHERN AND CENTRAL MISSOURI...

CITY           SKY/WX    TMP DP  RH WIND       PRES   REMARKS
ST. JOSEPH     CLOUDY    75  70  84 S20G26    29.80S
MOSBY          CLOUDY    77  64  65 S10G17    29.85F
WARRENSBURG    PTSUNNY   75  64  69 S15G21    29.90F
WHITEMAN AFB   PTSUNNY   76  71  85 SW18      29.90S
CLINTON        CLOUDY    75  66  73 S12       29.94S
SEDALIA        CLOUDY    77  68  73 S18G26    29.93F
WARSAW         NOT AVBL
CHILLICOTHE      N/A     73  67  81 SE10G17   29.86F
KIRKSVILLE     CLOUDY    69  65  86 S10       29.89F

$$

MOZ041-047>049-056>058-063>065-088>090-097-281600-
...EASTERN AND SOUTHERN MISSOURI...

CITY           SKY/WX    TMP DP  RH WIND       PRES   REMARKS
ST. LOUIS INTL CLOUDY    80  62  54 S16       30.03F
SPIRIT OF STL  CLOUDY    77  65  66 S8        30.01F
COLUMBIA       CLOUDY    74  66  76 S15       29.97F
JEFFERSON CITY CLOUDY    75  64  68 S10       29.97F
ROLLA          CLOUDY    75  64  68 S14G22    30.02F
OSAGE BEACH    CLOUDY    76  66  71 S12       30.00F
SPRINGFIELD    CLOUDY    76  66  71 S18       29.99F
BRANSON        PTSUNNY   75  64  69 S6        30.05R
JOPLIN         CLOUDY    79  69  71 S16G25    29.97S
WEST PLAINS    SUNNY     77  63  61 S9        30.07S

$$

IAZ060-094-KSZ022-034>040-054-083-096-NEZ052-066-093-281600-
...KANSAS...SOUTHEAST NEBRASKA AND IOWA...

CITY           SKY/WX    TMP DP  RH WIND       PRES   REMARKS
TOPEKA         CLOUDY    76  70  82 S17G28    29.78F
MANHATTAN      MOSUNNY   81  70  69 SW18G30   29.76F
EMPORIA        CLOUDY    75  69  81 S21G31    29.83F
CHANUTE          N/A    N/A N/A N/A MISG      29.91S
WICHITA        PTSUNNY   80  71  74 S18G24    29.84F
OMAHA          CLOUDY    74  67  78 S16       29.71F
LINCOLN        CLOUDY    78  70  76 S13       29.73S
FALLS CITY     CLOUDY    75  70  84 S8        29.77F
LAMONI         CLOUDY    69  66  90 S14       29.80F
DES MOINES     CLOUDY    76  61  59 SW18      29.72R

$$




USA.gov is the U.S. government's official web portal to all federal, state and local government web resources and services.